x

Port Washington, Wi (pwaw3) Weather Station

7:40am - Sat 10th Dec 2016 All times are CST. -6 hours from GMT.

  • Wind
    7mph, 11mph gusts
  • Air Temp 18°f
  • Sea Pressure 1032.5mb
  • Port Washington, Wi
  • Port Washington, Wi

More Historic Weather Station data

Upgrade to MSW Pro to gain access to the past 30 days of data for over 8000 Wavebouys and Weather Stations around the globe.

Join Pro

Comparision Forecast

View Surf forecast
   
Sat 12/10 7:40am 7 11 mph 1032.5mb 18f
7:30am 6 11 mph 1032.5mb 18f
7:20am 6 9 mph 1032.5mb 17f
7:10am 3 8 mph 1032.5mb 18f
7:00am 5 8 mph 1032.5mb 17f
6:40am 5 7 mph 1032.5mb 17f
6:30am 5 7 mph 1032.8mb 17f
6:20am 5 6 mph 1032.8mb 17f
6:10am 3 6 mph 1032.8mb 17f
6:00am 5 6 mph 1032.5mb 16f
5:40am 5 7 mph 1032.5mb 17f
5:30am 5 8 mph 1032.5mb 17f
5:20am 5 7 mph 1032.5mb 17f
5:10am 3 9 mph 1032.5mb 17f
5:00am 3 6 mph 1032.5mb 17f
4:40am 5 8 mph 1032.5mb 17f
4:30am 5 10 mph 1032.5mb 18f
4:20am 5 10 mph 1032.5mb 18f
4:10am 7 13 mph 1032.2mb 17f
4:00am 8 13 mph 1032.5mb 17f
3:40am 6 13 mph 1032.5mb 18f
3:30am 6 11 mph 1032.5mb 18f
3:20am 3 11 mph 1032.5mb 18f
3:10am 6 10 mph 1032.5mb 18f
3:00am 6 10 mph 1032.5mb 18f
2:40am 6 11 mph 1032.5mb 19f
2:30am 6 9 mph 1032.5mb 19f
2:20am 5 9 mph 1032.5mb 19f
2:10am 6 9 mph 1032.5mb 19f
2:00am 6 9 mph 1032.5mb 20f
1:40am 5 9 mph 1032.2mb 20f
1:30am 6 11 mph 1032.2mb 20f
1:20am 7 10 mph 1032.2mb 20f
1:10am 6 10 mph 1032.2mb 20f
1:00am 6 10 mph 1032.2mb 20f
12:40am 5 7 mph 1032.2mb 20f
12:30am 6 8 mph 1032.2mb 20f
12:20am 6 8 mph 1032.2mb 20f
12:10am 5 8 mph 1032.2mb 20f
12:00am 7 10 mph 1032.2mb 20f
Fri 12/09 11:40pm 5 7 mph 1032.2mb 19f
11:30pm 3 6 mph 1032.2mb 19f
11:20pm 3 7 mph 1032.2mb 19f
11:10pm 5 7 mph 1032.2mb 19f
11:00pm 5 7 mph 1032.2mb 19f
10:40pm 2 6 mph 1032.5mb 19f
10:30pm 3 6 mph 1032.2mb 19f
10:20pm 3 7 mph 1032.5mb 19f
10:10pm 3 6 mph 1032.2mb 19f
10:00pm 3 7 mph 1032.2mb 19f
9:40pm 7 8 mph 1032.5mb 19f
9:30pm 6 7 mph 1032.5mb 19f
9:20pm 5 7 mph 1032.5mb 19f
9:10pm 3 7 mph 1032.5mb 19f
9:00pm 5 6 mph 1032.5mb 19f
8:40pm 5 7 mph 1032.5mb 19f
8:30pm 3 6 mph 1032.5mb 19f
8:20pm 2 6 mph 1032.8mb 19f
8:10pm 3 5 mph 1032.8mb 19f
8:00pm 2 5 mph 1032.8mb 20f
7:40pm 3 5 mph 1033.2mb 20f
7:30pm 3 6 mph 1033.2mb 20f
7:20pm 3 6 mph 1033.2mb 21f
7:10pm 5 6 mph 1032.8mb 21f
7:00pm 5 6 mph 1032.8mb 21f
6:40pm 3 6 mph 1032.8mb 21f
6:30pm 3 6 mph 1032.8mb 21f
6:20pm 5 7 mph 1032.8mb 22f
6:10pm 5 7 mph 1032.8mb 22f
6:00pm 5 6 mph 1032.8mb 22f
5:40pm 5 8 mph 1032.8mb 22f
5:30pm 5 8 mph 1032.5mb 23f
5:20pm 6 9 mph 1032.5mb 23f
5:10pm 6 10 mph 1032.5mb 23f
5:00pm 7 10 mph 1032.5mb 23f
4:40pm 6 9 mph 1032.5mb 23f
4:30pm 6 11 mph 1032.5mb 24f
4:20pm 6 10 mph 1032.5mb 24f
4:10pm 8 15 mph 1032.5mb 24f
4:00pm 8 14 mph 1032.2mb 24f
3:40pm 10 17 mph 1032.5mb 24f
3:30pm 10 17 mph 1032.5mb 25f
3:20pm 9 17 mph 1032.5mb 25f
3:10pm 10 18 mph 1032.2mb 25f
3:00pm 14 20 mph 1032.2mb 25f
2:40pm 11 21 mph 1032.2mb 25f
2:30pm 10 18 mph 1032.2mb 25f
2:20pm 13 17 mph 1031.8mb 25f
2:10pm 11 20 mph 1031.8mb 25f
2:00pm 10 18 mph 1031.8mb 25f
1:40pm 13 18 mph 1031.8mb 25f
1:30pm 9 21 mph 1031.8mb 25f
1:20pm 10 21 mph 1031.8mb 25f
1:10pm 9 17 mph 1031.8mb 25f
1:00pm 10 20 mph 1031.8mb 25f
12:40pm 15 21 mph 1031.8mb 25f
12:30pm 15 22 mph 1031.8mb 25f
12:20pm 14 21 mph 1031.8mb 25f
12:10pm 13 22 mph 1032.2mb 25f
12:00pm 10 21 mph 1032.2mb 25f
11:40am 15 20 mph 1032.5mb 25f
11:30am 10 20 mph 1032.5mb 25f
11:20am 14 20 mph 1032.5mb 25f
10:40am 7 16 mph 1033.2mb 25f
10:30am 11 15 mph 1033.2mb 25f
10:20am 9 17 mph 1033.2mb 24f
10:10am 11 17 mph 1033.2mb 24f
10:00am 10 16 mph 1033.5mb 24f
9:40am 10 16 mph 1033.5mb 23f
9:30am 11 16 mph 1033.2mb 23f
9:20am 6 20 mph 1033.2mb 23f
9:10am 8 17 mph 1033.2mb 22f
9:00am 9 15 mph 1032.8mb 22f
8:40am 9 16 mph 1032.5mb 22f
8:30am 8 14 mph 1032.8mb 22f
8:20am 10 14 mph 1032.5mb 21f
8:10am 7 13 mph 1032.5mb 21f
8:00am 8 11 mph 1032.5mb 21f
7:50am 5 9 mph 1032.2mb 21f
7:40am 7 10 mph 1032.2mb 20f
7:30am 7 10 mph 1032.2mb 20f
7:20am 6 10 mph 1032.2mb 20f
7:10am 6 10 mph 1031.8mb 20f
7:00am 6 8 mph 1032.2mb 20f
6:40am 5 9 mph 1031.8mb 20f
6:30am 6 13 mph 1031.8mb 20f
6:20am 6 10 mph 1031.5mb 20f
6:10am 6 10 mph 1031.5mb 20f
6:00am 6 11 mph 1031.5mb 21f
5:50am 6 13 mph 1031.5mb 21f
5:40am 8 13 mph 1031.2mb 21f
5:30am 9 11 mph 1031.2mb 21f
5:20am 8 14 mph 1031.2mb 21f
5:10am 7 14 mph 1031.2mb 21f
5:00am 8 13 mph 1031.2mb 21f
4:50am 8 16 mph 1031.2mb 21f
4:40am 7 13 mph 1030.8mb 22f
4:30am 7 11 mph 1030.8mb 22f
4:20am 7 13 mph 1030.8mb 22f
4:10am 9 15 mph 1030.8mb 22f
4:00am 8 14 mph 1030.5mb 22f
3:50am 8 14 mph 1030.5mb 22f
3:40am 9 16 mph 1030.5mb 23f
3:30am 9 13 mph 1030.5mb 23f
3:20am 7 14 mph 1030.5mb 23f
3:10am 8 14 mph 1030.8mb 23f
3:00am 9 14 mph 1030.5mb 23f
2:50am 9 15 mph 1030.5mb 23f
2:40am 7 10 mph 1030.5mb 23f
2:30am 7 15 mph 1030.1mb 23f
2:20am 9 17 mph 1030.1mb 23f
2:10am 8 14 mph 1030.1mb 23f
2:00am 7 15 mph 1029.8mb 23f
1:50am 8 14 mph 1029.8mb 24f
12:40am 9 14 mph 1029.1mb 24f
12:30am 9 18 mph 1029.1mb 24f
12:20am 10 18 mph 1028.8mb 24f
12:10am 10 17 mph 1028.8mb 24f
12:00am 13 18 mph 1028.8mb 24f
Thu 12/08 11:50pm 9 15 mph 1028.8mb 24f
11:40pm 10 20 mph 1028.8mb 25f
11:30pm 10 16 mph 1028.8mb 25f
11:20pm 7 15 mph 1028.4mb 25f
11:10pm 9 21 mph 1028.4mb 25f
11:00pm 9 16 mph 1028.4mb 25f
10:50pm 9 17 mph 1028.4mb 25f
10:40pm 11 18 mph 1028.1mb 25f
10:30pm 9 17 mph 1028.1mb 25f
10:20pm 8 16 mph 1028.1mb 25f
10:10pm 11 21 mph 1027.8mb 25f
10:00pm 13 21 mph 1027.4mb 25f
9:50pm 13 22 mph 1027.4mb 25f
9:40pm 13 18 mph 1027.4mb 24f
9:30pm 8 21 mph 1027.4mb 24f
9:20pm 14 22 mph 1027.4mb 24f
9:10pm 13 18 mph 1027.4mb 24f
9:00pm 10 16 mph 1027.4mb 24f
8:50pm 10 16 mph 1027.4mb 24f
8:40pm 11 18 mph 1027.4mb 24f
8:30pm 9 16 mph 1027.4mb 24f
8:20pm 11 18 mph 1027.4mb 24f
8:10pm 8 16 mph 1027.1mb 24f
8:00pm 11 17 mph 1027.1mb 24f
7:50pm 9 16 mph 1026.8mb 24f
7:40pm 13 20 mph 1026.8mb 24f
7:30pm 9 16 mph 1026.8mb 24f
7:20pm 11 22 mph 1026.8mb 24f
7:10pm 14 22 mph 1026.8mb 25f
7:00pm 14 22 mph 1026.8mb 25f
6:50pm 9 17 mph 1026.8mb 25f
6:40pm 13 21 mph 1026.8mb 25f
6:30pm 11 20 mph 1026.8mb 25f
6:20pm 10 20 mph 1026.4mb 25f
6:10pm 11 22 mph 1026.8mb 25f
6:00pm 14 20 mph 1026.4mb 25f
5:50pm 11 25 mph 1026.1mb 25f
5:40pm 11 18 mph 1026.1mb 25f
5:30pm 16 23 mph 1026.1mb 25f
5:20pm 10 20 mph 1026.1mb 25f
5:10pm 8 18 mph 1026.1mb 25f
5:00pm 11 17 mph 1026.1mb 25f
4:50pm 9 18 mph 1026.1mb 26f
4:40pm 8 16 mph 1025.7mb 26f
4:30pm 8 18 mph 1025.7mb 26f
4:20pm 10 22 mph 1025.7mb 26f
4:10pm 13 20 mph 1025.4mb 26f
4:00pm 8 20 mph 1025.4mb 26f
3:50pm 10 24 mph 1025.4mb 26f
3:40pm 14 21 mph 1025.4mb 26f
3:30pm 14 23 mph 1025.4mb 26f
3:20pm 11 23 mph 1025.1mb 26f
3:10pm 9 22 mph 1024.7mb 26f
3:00pm 10 20 mph 1024.7mb 27f
2:50pm 15 25 mph 1024.7mb 26f
2:40pm 11 23 mph 1024.7mb 27f
2:30pm 13 25 mph 1024.4mb 26f
2:20pm 16 26 mph 1023.7mb 26f
2:10pm 14 29 mph 1023.7mb 26f
2:00pm 15 28 mph 1023.4mb 26f
1:50pm 15 25 mph 1023.4mb 27f
1:40pm 14 28 mph 1023.4mb 26f
1:30pm 17 28 mph 1023.4mb 26f
1:20pm 14 24 mph 1023mb 26f
1:10pm 18 31 mph 1023mb 26f
1:08pm 14 31 mph 1022.4mb 26f
1:00pm 14 28 mph 1022.7mb 26f
12:50pm 13 26 mph 1022.7mb 26f
12:40pm 17 26 mph 1022.7mb 26f
12:30pm 17 31 mph 1022.7mb 25f
12:20pm 16 28 mph 1022.7mb 25f
12:10pm 18 30 mph 1022.7mb 24f
12:00pm 17 30 mph 1022.7mb 24f
11:50am 15 24 mph 1022.7mb 24f
11:40am 15 26 mph 1022.7mb 24f
11:30am 16 25 mph 1022.7mb 24f
11:20am 16 28 mph 1022.7mb 24f
11:10am 18 28 mph 1022.7mb 23f
11:00am 14 26 mph 1022.4mb 23f
10:50am 17 26 mph 1022.4mb 23f
10:40am 17 26 mph 1022mb 22f
10:30am 13 29 mph 1022.4mb 22f
10:20am 15 29 mph 1022.4mb 22f
10:10am 15 29 mph 1022.4mb 22f
10:02am 13 29 mph 1022mb 22f
10:00am 16 30 mph 1022.4mb 22f
9:50am 17 26 mph 1022.4mb 21f
9:40am 15 26 mph 1022mb 21f
9:30am 15 31 mph 1022mb 21f
9:20am 17 30 mph 1022mb 20f
9:10am 17 29 mph 1021.7mb 20f
9:01am 13 29 mph 1021.7mb 20f
9:00am 13 22 mph 1021.7mb 20f
8:50am 16 23 mph 1021.7mb 20f
8:40am 10 23 mph 1021.7mb 20f
8:30am 15 23 mph 1021.3mb 19f
8:20am 11 21 mph 1021.3mb 19f
8:10am 11 18 mph 1021.3mb 20f
8:00am 13 26 mph 1021.3mb 20f
7:50am 10 17 mph 1021.3mb 20f
7:40am 14 23 mph 1021.3mb 19f
7:30am 13 25 mph 1021mb 20f
7:20am 9 18 mph 1021mb 20f
7:10am 9 17 mph 1020.7mb 20f
7:00am 9 17 mph 1020.7mb 20f
6:50am 11 23 mph 1020.7mb 20f
6:40am 15 23 mph 1020.7mb 20f
6:30am 9 20 mph 1020.7mb 20f
6:20am 14 22 mph 1020.7mb 20f
6:10am 13 24 mph 1020.3mb 20f
6:00am 15 26 mph 1020.3mb 20f
5:50am 11 25 mph 1020.3mb 20f
5:40am 10 23 mph 1020mb 20f
5:30am 10 26 mph 1020mb 20f
5:20am 13 26 mph 1020mb 21f
5:10am 13 24 mph 1020mb 21f
5:00am 10 21 mph 1020mb 21f
4:50am 15 21 mph 1019.6mb 21f
4:40am 11 26 mph 1019.6mb 21f
4:30am 11 18 mph 1019.6mb 22f
4:20am 7 17 mph 1019.6mb 22f
4:10am 14 25 mph 1019.3mb 22f
4:00am 16 22 mph 1019.3mb 22f
3:50am 7 16 mph 1019.3mb 22f
3:40am 9 16 mph 1019.3mb 22f
3:30am 9 18 mph 1019.3mb 22f
3:20am 8 17 mph 1019.3mb 22f
3:10am 9 18 mph 1019.3mb 22f
3:00am 10 21 mph 1019.3mb 22f
2:50am 8 16 mph 1019.3mb 22f
2:40am 11 17 mph 1019.3mb 22f
2:30am 9 21 mph 1019.3mb 22f
2:20am 11 17 mph 1019.3mb 22f
2:10am 8 15 mph 1019.3mb 22f
2:00am 6 14 mph 1019.3mb 22f
1:50am 8 17 mph 1019.3mb 22f
1:40am 7 15 mph 1019.3mb 22f
1:30am 11 18 mph 1019.3mb 22f
1:20am 8 23 mph 1019.3mb 22f
1:10am 11 20 mph 1019.3mb 22f
1:00am 8 15 mph 1019.3mb 22f
12:50am 8 18 mph 1019.3mb 22f
12:40am 7 17 mph 1019.3mb 22f
12:30am 10 17 mph 1019.3mb 22f
12:20am 11 17 mph 1019.3mb 22f
12:10am 11 18 mph 1019.3mb 22f
12:00am 9 20 mph 1019.3mb 22f
Wed 12/07 11:50pm 9 16 mph 1019.3mb 22f
11:40pm 11 25 mph 1019.3mb 22f
11:30pm 14 21 mph 1019.3mb 22f
11:20pm 9 20 mph 1019.3mb 22f
11:10pm 9 21 mph 1019.3mb 22f
11:00pm 15 20 mph 1019.3mb 22f
10:50pm 8 20 mph 1019.3mb 22f
10:40pm 7 14 mph 1019.3mb 22f
10:30pm 11 25 mph 1019mb 22f
10:20pm 14 24 mph 1019mb 22f
10:10pm 15 29 mph 1019mb 22f
10:00pm 16 29 mph 1018.6mb 22f
9:50pm 11 26 mph 1019mb 22f
9:40pm 10 23 mph 1018.6mb 22f
9:30pm 15 28 mph 1018.6mb 22f
9:20pm 11 20 mph 1018.6mb 22f
9:10pm 10 23 mph 1019mb 22f
9:00pm 13 21 mph 1018.6mb 23f
8:50pm 11 22 mph 1019mb 23f
8:40pm 11 23 mph 1018.6mb 23f
8:30pm 7 13 mph 1019mb 23f
8:20pm 10 26 mph 1019mb 23f
8:10pm 14 25 mph 1019mb 23f
8:00pm 14 24 mph 1018.6mb 23f
7:50pm 15 21 mph 1018.6mb 23f
7:40pm 16 26 mph 1018.6mb 23f
7:30pm 13 20 mph 1018.6mb 23f
7:20pm 14 28 mph 1018.6mb 23f
7:10pm 16 24 mph 1018.6mb 23f
7:00pm 11 15 mph 1018.6mb 23f
6:50pm 11 17 mph 1018.6mb 23f
6:40pm 10 23 mph 1018.6mb 23f
6:30pm 14 20 mph 1018.3mb 23f
6:20pm 9 22 mph 1018.3mb 23f
6:10pm 15 28 mph 1018.3mb 23f
6:00pm 14 21 mph 1018.3mb 23f
5:50pm 13 20 mph 1017.9mb 23f
5:40pm 14 17 mph 1017.9mb 23f
5:30pm 6 9 mph 1017.9mb 23f
5:20pm 9 17 mph 1017.9mb 24f
5:10pm 11 22 mph 1017.9mb 24f
5:00pm 9 14 mph 1017.9mb 24f
4:50pm 11 15 mph 1017.6mb 24f
4:40pm 11 18 mph 1017.6mb 24f
4:30pm 13 21 mph 1017.6mb 24f
4:20pm 11 21 mph 1017.6mb 24f
4:10pm 10 21 mph 1017.3mb 25f
4:00pm 9 18 mph 1017.3mb 25f
3:50pm 9 20 mph 1016.9mb 25f
3:40pm 13 22 mph 1016.9mb 26f
3:30pm 9 21 mph 1016.9mb 26f
3:20pm 14 22 mph 1016.9mb 26f
3:10pm 15 23 mph 1016.9mb 26f
3:00pm 17 25 mph 1016.6mb 26f
2:50pm 13 21 mph 1016.6mb 26f
2:40pm 13 23 mph 1016.6mb 26f
2:30pm 14 20 mph 1016.3mb 26f
2:20pm 10 21 mph 1016.3mb 26f
2:10pm 10 20 mph 1015.9mb 26f
2:00pm 15 28 mph 1015.9mb 26f
1:50pm 9 20 mph 1016.3mb 26f
1:40pm 11 24 mph 1015.9mb 26f
1:30pm 17 24 mph 1015.9mb 26f
1:20pm 13 24 mph 1015.9mb 25f
1:10pm 16 24 mph 1016.3mb 25f
1:00pm 14
mph
1016.3mb 26f
12:50pm 16 30 mph 1015.9mb 25f
12:40pm 14 24 mph 1015.9mb 26f
12:30pm 14 28 mph 1015.9mb 26f
12:20pm 14 23 mph 1015.9mb 26f
12:10pm 17 26 mph 1015.9mb 26f
12:00pm 14 29 mph 1015.9mb 26f
11:50am 22 29 mph 1015.9mb 26f
11:40am 18 25 mph 1015.9mb 27f
11:30am 16 25 mph 1016.3mb 27f
11:20am 20 25 mph 1015.9mb 26f
11:10am 16 28 mph 1016.3mb 27f
11:00am 18 29 mph 1016.3mb 26f
10:50am 17 29 mph 1016.3mb 26f
10:40am 11 25 mph 1016.3mb 26f
10:30am 17 25 mph 1016.3mb 26f
10:20am 17 29 mph 1016.3mb 25f
10:10am 16 30 mph 1016.3mb 25f
10:00am 18 29 mph 1015.9mb 25f
9:53am 14 29 mph 1015.9mb 25f
9:50am 18 26 mph 1016.3mb 25f
9:40am 14 23 mph 1016.3mb 25f
9:30am 15 23 mph 1016.3mb 25f
9:20am 17 28 mph 1016.3mb 24f
9:10am 17 24 mph 1016.3mb 24f
9:00am 15 26 mph 1016.3mb 24f
8:50am 16 24 mph 1015.9mb 24f
8:40am 13 23 mph 1016.3mb 24f
8:30am 11 21 mph 1016.3mb 24f
8:20am 15 22 mph 1016.3mb 23f
8:10am 13 21 mph 1015.9mb 23f
8:00am 11 24 mph 1015.9mb 23f
7:50am 13 22 mph 1015.9mb 23f
7:40am 15 23 mph 1015.6mb 23f
7:30am 11 22 mph 1015.9mb 23f
7:20am 15 22 mph 1015.6mb 23f
7:10am 9 21 mph 1015.6mb 23f
7:00am 13 20 mph 1015.6mb 23f
6:50am 14 23 mph 1015.6mb 23f
6:40am 14 23 mph 1015.2mb 23f
6:30am 13 25 mph 1015.2mb 23f
6:20am 10 23 mph 1015.2mb 23f
6:10am 14 24 mph 1015.2mb 23f
6:00am 16 24 mph 1014.9mb 23f
5:50am 15 24 mph 1014.9mb 23f
5:40am 15 26 mph 1014.9mb 23f
5:30am 17 28 mph 1014.9mb 23f
5:20am 14 23 mph 1014.6mb 23f
5:10am 18 25 mph 1014.6mb 24f
5:00am 16 23 mph 1014.6mb 24f
4:50am 15 25 mph 1014.6mb 24f
4:40am 15 23 mph 1014.6mb 24f
4:30am 15 28 mph 1014.2mb 24f
4:20am 16 24 mph 1013.9mb 24f
4:10am 15 25 mph 1013.9mb 24f
4:00am 15 25 mph 1013.9mb 24f
3:50am 11 28 mph 1013.9mb 24f
3:40am 15 25 mph 1013.9mb 24f
3:30am 14 23 mph 1013.9mb 25f
3:20am 16 23 mph 1013.5mb 25f
3:10am 14 24 mph 1013.9mb 25f
3:00am 11 20 mph 1013.9mb 25f
2:50am 15 20 mph 1013.5mb 26f
2:40am 16 25 mph 1013.5mb 26f
2:30am 15 23 mph 1013.9mb 26f
2:20am 16 22 mph 1012.9mb 26f
2:10am 14 20 mph 1012.9mb 26f
2:00am 10 17 mph 1012.9mb 27f
1:50am 13 20 mph 1012.9mb 27f
1:40am 15 22 mph 1013.2mb 27f
1:30am 13 26 mph 1012.9mb 27f
1:20am 13 23 mph 1013.2mb 27f
1:10am 10 26 mph 1012.9mb 27f
1:00am 11 24 mph 1012.9mb 27f
12:50am 15 22 mph 1012.5mb 28f
12:40am 13 26 mph 1012.2mb 28f
12:30am 14 29 mph 1012.5mb 28f
12:20am 16 26 mph 1012.2mb 28f
12:10am 15 26 mph 1012.2mb 28f
12:00am 15 26 mph 1012.2mb 28f
Tue 12/06 11:50pm 14 23 mph 1012.5mb 28f
11:40pm 16 24 mph 1012.2mb 28f
11:30pm 18 26 mph 1012.2mb 28f
11:20pm 9 21 mph 1012.2mb 28f
11:10pm 13 21 mph 1012.2mb 28f
11:00pm 16
mph
1012.2mb 28f
10:50pm 15 29 mph 1012.2mb 29f
10:40pm 15 25 mph 1012.2mb 29f
10:30pm 16 29 mph 1011.9mb 29f
10:20pm 14 26 mph 1012.2mb 29f
10:10pm 17 25 mph 1011.9mb 28f
10:00pm 16 26 mph 1011.9mb 28f
9:50pm 14 31 mph 1011.9mb 28f
9:40pm 13 26 mph 1011.5mb 28f
9:30pm 15 25 mph 1011.9mb 28f
9:20pm 17 31 mph 1011.9mb 28f
9:14pm 17 31 mph 1011.2mb 28f
9:10pm 15 25 mph 1011.9mb 28f
9:00pm 15 26 mph 1011.5mb 28f
8:50pm 14 28 mph 1011.5mb 28f
8:40pm 15 32 mph 1011.2mb 28f
8:30pm 23 31 mph 1011.2mb 28f
8:20pm 22 32 mph 1011.5mb 28f
8:10pm 20 32 mph 1011.2mb 28f
8:04pm 20 32 mph 1010.8mb 28f
8:00pm 15 24 mph 1011.2mb 28f
7:50pm 14 28 mph 1011.2mb 28f
6:50pm 18 26 mph 1010.2mb 31f
6:17pm 17 32 mph 1009.1mb 32f
5:40pm 9 17 mph 1008.8mb 33f
5:30pm 10 17 mph 1008.8mb 34f
5:20pm 14 23 mph 1008.8mb 34f
5:10pm 11 18 mph 1008.5mb 34f
5:00pm 10 17 mph 1008.5mb 35f
4:50pm 9 17 mph 1008.5mb 35f
4:40pm 7 14 mph 1008.5mb 35f
4:30pm 8 16 mph 1008.1mb 36f
4:20pm 9 17 mph 1008.1mb 36f
4:10pm 8 16 mph 1008.1mb 36f
4:00pm 11 18 mph 1008.1mb 37f
3:50pm 9 15 mph 1008.1mb 37f
3:40pm 8 15 mph 1007.8mb 37f
3:30pm 10 17 mph 1007.8mb 37f
3:20pm 11 15 mph 1007.8mb 37f
3:10pm 7 11 mph 1007.8mb 37f
3:00pm 7 21 mph 1007.8mb 37f
2:50pm 9 16 mph 1007.8mb 37f
2:40pm 7 11 mph 1007.5mb 37f
2:30pm 7 13 mph 1007.1mb 37f